Location: Basse Occidentale du Courleau
(48.3833°N, 4.8333°W)
Time: 04:28:29
(UTC+00:00)

Cosmos 1151 Rocket - Pass Details

Date: 05 July 2020
Orbit: 591 x 617 km, 82.5° (Epoch: 11 August)

Event Time Altitude Azimuth Distance (km) Brightness Sun altitude
Rises 23:31:59 0° 353° (N) 2,882 8.2 -18.0°
Reaches altitude 10° 23:34:15 10° 357° (N) 1,969 6.9 -18.1°
Maximum altitude 23:38:34 60° 78° (ENE) 694 3.2 -18.2°
Enters shadow 23:40:04 37° 141° (SE) 945 3.5 -18.3°
